TimeAKST,TemperatureF,Dew PointF,Humidity,Sea Level PressureIn,VisibilityMPH,Wind Direction,Wind SpeedMPH,Gust SpeedMPH,PrecipitationIn,Events,Conditions,WindDirDegrees,DateUTC
12:16 AM,10.4,3.2,73,30.10,10.0,North,8.1,-,N/A,,Clear,350,2012-11-05 09:16:00
12:36 AM,10.4,3.2,73,30.11,10.0,North,8.1,-,N/A,,Clear,360,2012-11-05 09:36:00
12:56 AM,10.4,3.2,73,30.12,10.0,North,8.1,-,N/A,,Clear,350,2012-11-05 09:56:00
1:16 AM,10.4,3.2,73,30.12,10.0,NNW,8.1,-,N/A,,Clear,340,2012-11-05 10:16:00
1:36 AM,12.2,3.2,67,30.12,10.0,North,9.2,-,N/A,,Clear,350,2012-11-05 10:36:00
1:56 AM,12.2,1.4,62,30.13,10.0,North,6.9,-,N/A,,Clear,350,2012-11-05 10:56:00
2:16 AM,10.4,1.4,67,30.13,10.0,North,8.1,-,N/A,,Clear,360,2012-11-05 11:16:00
2:36 AM,10.4,1.4,67,30.14,10.0,North,5.8,-,N/A,,Clear,350,2012-11-05 11:36:00
2:56 AM,10.4,1.4,67,30.14,10.0,NNW,5.8,-,N/A,,Clear,340,2012-11-05 11:56:00
3:16 AM,12.2,1.4,62,30.14,10.0,North,8.1,-,N/A,,Clear,350,2012-11-05 12:16:00
3:36 AM,12.2,1.4,62,30.15,10.0,Calm,Calm,-,N/A,,Clear,0,2012-11-05 12:36:00
3:56 AM,10.4,1.4,67,30.15,10.0,WNW,3.5,-,N/A,,Clear,300,2012-11-05 12:56:00
4:16 AM,10.4,-0.4,62,30.16,10.0,WNW,6.9,-,N/A,,Clear,290,2012-11-05 13:16:00
4:36 AM,10.4,-0.4,62,30.16,10.0,NW,6.9,-,N/A,,Clear,310,2012-11-05 13:36:00
4:56 AM,8.6,1.4,73,30.16,10.0,NNW,6.9,-,N/A,,Clear,330,2012-11-05 13:56:00
5:16 AM,8.6,-0.4,67,30.17,10.0,NNW,5.8,-,N/A,,Clear,340,2012-11-05 14:16:00
5:36 AM,8.6,1.4,73,30.17,10.0,NNW,6.9,-,N/A,,Clear,330,2012-11-05 14:36:00
5:56 AM,8.6,-0.4,67,30.17,10.0,West,4.6,-,N/A,,Clear,280,2012-11-05 14:56:00
6:16 AM,8.6,-2.2,62,30.18,10.0,NNW,5.8,-,N/A,,Clear,330,2012-11-05 15:16:00
6:36 AM,5.0,-0.4,78,30.19,10.0,West,4.6,-,N/A,,Clear,270,2012-11-05 15:36:00
6:56 AM,6.8,-0.4,72,30.19,10.0,NNW,5.8,-,N/A,,Clear,340,2012-11-05 15:56:00
7:16 AM,6.8,-2.2,67,30.20,10.0,NNW,4.6,-,N/A,,Clear,340,2012-11-05 16:16:00
7:36 AM,6.8,1.4,79,30.20,10.0,North,4.6,-,N/A,,Clear,350,2012-11-05 16:36:00
7:56 AM,6.8,-4.0,61,30.20,10.0,West,3.5,-,N/A,,Clear,280,2012-11-05 16:56:00
8:16 AM,5.0,-0.4,78,30.21,10.0,West,3.5,-,N/A,,Clear,260,2012-11-05 17:16:00
8:36 AM,5.0,-0.4,78,30.21,10.0,WSW,4.6,-,N/A,,Clear,240,2012-11-05 17:36:00
8:56 AM,5.0,-4.0,66,30.22,9.0,West,3.5,-,N/A,,Clear,260,2012-11-05 17:56:00
9:16 AM,3.2,-0.4,85,30.22,10.0,WSW,5.8,-,N/A,,Clear,240,2012-11-05 18:16:00
9:36 AM,3.2,-0.4,85,30.23,8.0,WSW,5.8,-,N/A,,Clear,250,2012-11-05 18:36:00
9:56 AM,3.2,-0.4,85,30.23,10.0,WSW,3.5,-,N/A,,Clear,250,2012-11-05 18:56:00
10:16 AM,3.2,-0.4,85,30.24,5.0,WSW,4.6,-,N/A,,Clear,240,2012-11-05 19:16:00
10:36 AM,3.2,-0.4,85,30.24,7.0,SW,3.5,-,N/A,,Clear,230,2012-11-05 19:36:00
10:56 AM,5.0,-0.4,78,30.24,10.0,Calm,Calm,-,N/A,,Clear,0,2012-11-05 19:56:00
11:16 AM,6.8,-0.4,72,30.25,10.0,West,3.5,-,N/A,,Clear,270,2012-11-05 20:16:00
11:36 AM,6.8,1.4,79,30.26,10.0,Calm,Calm,-,N/A,,Clear,0,2012-11-05 20:36:00
11:56 AM,6.8,1.4,79,30.25,10.0,WNW,3.5,-,N/A,,Clear,300,2012-11-05 20:56:00
12:16 PM,6.8,1.4,79,30.26,10.0,Calm,Calm,-,N/A,,Clear,0,2012-11-05 21:16:00
12:36 PM,6.8,1.4,79,30.26,10.0,Calm,Calm,-,N/A,,Clear,0,2012-11-05 21:36:00
12:56 PM,6.8,3.2,85,30.28,10.0,WSW,4.6,-,N/A,,Clear,240,2012-11-05 21:56:00
1:16 PM,6.8,1.4,79,30.28,10.0,SW,5.8,-,N/A,,Clear,230,2012-11-05 22:16:00
1:36 PM,8.6,1.4,73,30.28,10.0,SW,3.5,-,N/A,,Clear,230,2012-11-05 22:36:00
1:56 PM,8.6,3.2,79,30.28,10.0,SW,3.5,-,N/A,,Clear,230,2012-11-05 22:56:00
2:16 PM,8.6,3.2,79,30.29,10.0,SW,3.5,-,N/A,,Clear,230,2012-11-05 23:16:00
2:36 PM,8.6,3.2,79,30.29,10.0,WSW,4.6,-,N/A,,Clear,240,2012-11-05 23:36:00
2:56 PM,8.6,3.2,79,30.29,10.0,WSW,4.6,-,N/A,,Clear,240,2012-11-05 23:56:00
3:16 PM,8.6,1.4,73,30.28,10.0,WSW,3.5,-,N/A,,Clear,240,2012-11-06 00:16:00
3:36 PM,8.6,1.4,73,30.28,10.0,WSW,3.5,-,N/A,,Clear,250,2012-11-06 00:36:00
3:56 PM,8.6,3.2,79,30.29,8.0,Calm,Calm,-,N/A,,Clear,0,2012-11-06 00:56:00
4:16 PM,8.6,1.4,73,30.30,7.0,West,4.6,-,N/A,,Clear,270,2012-11-06 01:16:00
4:36 PM,6.8,3.2,85,30.29,10.0,West,4.6,-,N/A,,Clear,270,2012-11-06 01:36:00
4:56 PM,6.8,1.4,79,30.30,10.0,West,4.6,-,N/A,,Clear,260,2012-11-06 01:56:00
5:16 PM,6.8,1.4,79,30.30,10.0,West,4.6,-,N/A,,Clear,270,2012-11-06 02:16:00
5:36 PM,6.8,3.2,85,30.30,10.0,West,3.5,-,N/A,,Clear,280,2012-11-06 02:36:00
5:56 PM,6.8,3.2,85,30.30,10.0,WNW,3.5,-,N/A,,Clear,290,2012-11-06 02:56:00
6:16 PM,5.0,1.4,85,30.31,10.0,East,3.5,-,N/A,,Clear,90,2012-11-06 03:16:00
6:36 PM,6.8,3.2,85,30.31,10.0,SE,5.8,-,N/A,,Clear,130,2012-11-06 03:36:00
6:56 PM,3.2,-2.2,78,30.32,10.0,ESE,5.8,-,N/A,,Clear,120,2012-11-06 03:56:00
7:16 PM,3.2,-0.4,85,30.33,10.0,ESE,4.6,-,N/A,,Clear,120,2012-11-06 04:16:00
7:36 PM,3.2,-0.4,85,30.33,10.0,ESE,5.8,-,N/A,,Clear,120,2012-11-06 04:36:00
7:56 PM,3.2,-2.2,78,30.33,10.0,ESE,5.8,-,N/A,,Clear,120,2012-11-06 04:56:00
8:16 PM,3.2,-2.2,78,30.33,10.0,ENE,4.6,-,N/A,,Clear,70,2012-11-06 05:16:00
8:36 PM,1.4,-2.2,85,30.33,10.0,ENE,5.8,-,N/A,,Clear,60,2012-11-06 05:36:00
8:56 PM,-0.4,-5.8,78,30.35,10.0,NE,4.6,-,N/A,,Clear,50,2012-11-06 05:56:00
9:16 PM,-0.4,-5.8,78,30.35,10.0,NE,8.1,-,N/A,,Clear,50,2012-11-06 06:16:00
9:36 PM,-0.4,-4.0,85,30.35,10.0,NE,6.9,-,N/A,,Clear,50,2012-11-06 06:36:00
9:56 PM,-0.4,-4.0,85,30.36,10.0,ENE,10.4,-,N/A,,Clear,60,2012-11-06 06:56:00
10:16 PM,-0.4,-2.2,92,30.36,10.0,ENE,10.4,-,N/A,,Clear,70,2012-11-06 07:16:00
10:36 PM,-0.4,-4.0,85,30.36,10.0,ENE,11.5,-,N/A,,Clear,70,2012-11-06 07:36:00
10:56 PM,-0.4,-5.8,78,30.36,10.0,ENE,11.5,-,N/A,,Clear,70,2012-11-06 07:56:00
11:16 PM,-0.4,-5.8,78,30.36,10.0,ENE,8.1,-,N/A,,Clear,60,2012-11-06 08:16:00
11:36 PM,-0.4,-5.8,78,30.36,10.0,ENE,10.4,-,N/A,,Clear,60,2012-11-06 08:36:00
11:56 PM,-0.4,-5.8,78,30.37,10.0,ENE,10.4,-,N/A,,Clear,60,2012-11-06 08:56:00